TimeEEST,TemperatureF,Dew PointF,Humidity,Sea Level PressureIn,VisibilityMPH,Wind Direction,Wind SpeedMPH,Gust SpeedMPH,PrecipitationIn,Events,Conditions,WindDirDegrees,DateUTC
12:50 AM,59.0,53.6,82,30.04,5.0,East,17.3,-,N/A,,Mostly Cloudy,90,2012-10-04 21:50:00
1:50 AM,57.2,53.6,88,30.04,3.7,East,6.9,-,N/A,,Mostly Cloudy,90,2012-10-04 22:50:00
2:50 AM,55.4,53.6,94,30.01,3.7,SE,9.2,-,N/A,,Scattered Clouds,140,2012-10-04 23:50:00
3:50 AM,55.4,51.8,88,29.98,3.7,SE,6.9,-,N/A,,Partly Cloudy,140,2012-10-05 00:50:00
4:50 AM,53.6,51.8,94,29.98,3.7,SE,10.4,-,N/A,,Partly Cloudy,130,2012-10-05 01:50:00
5:50 AM,55.4,51.8,88,29.98,4.3,Calm,Calm,-,N/A,,Partly Cloudy,0,2012-10-05 02:50:00
6:50 AM,53.6,50.0,88,30.01,3.7,Calm,Calm,-,N/A,,Partly Cloudy,0,2012-10-05 03:50:00
7:50 AM,51.8,50.0,94,30.01,6.2,SSW,2.3,-,N/A,,Partly Cloudy,210,2012-10-05 04:50:00
8:50 AM,57.2,53.6,88,30.04,6.2,WSW,1.2,-,N/A,,Partly Cloudy,240,2012-10-05 05:50:00
9:50 AM,60.8,53.6,77,30.04,6.2,Calm,Calm,-,N/A,,Scattered Clouds,0,2012-10-05 06:50:00
10:50 AM,62.6,53.6,72,30.04,6.2,ENE,3.5,-,N/A,,Mostly Cloudy,70,2012-10-05 07:50:00
11:50 AM,69.8,51.8,53,30.04,6.2,ENE,15.0,-,N/A,,Mostly Cloudy,70,2012-10-05 08:50:00
12:50 PM,69.8,48.2,46,30.04,6.2,ENE,19.6,-,N/A,,Mostly Cloudy,70,2012-10-05 09:50:00
1:50 PM,69.8,50.0,49,30.04,6.2,East,16.1,-,N/A,,Mostly Cloudy,80,2012-10-05 10:50:00
2:50 PM,69.8,46.4,43,30.01,6.2,ENE,15.0,-,N/A,,Mostly Cloudy,70,2012-10-05 11:50:00
3:50 PM,71.6,48.2,43,30.01,6.2,ENE,13.8,-,N/A,,Mostly Cloudy,70,2012-10-05 12:50:00
4:50 PM,71.6,48.2,43,30.01,6.2,ENE,12.7,-,N/A,,Mostly Cloudy,60,2012-10-05 13:50:00
5:50 PM,71.6,48.2,43,30.04,6.2,ENE,8.1,-,N/A,,Mostly Cloudy,70,2012-10-05 14:50:00
6:50 PM,68.0,50.0,52,30.04,6.2,Calm,Calm,-,N/A,,Mostly Cloudy,0,2012-10-05 15:50:00
7:50 PM,62.6,50.0,63,30.06,6.2,Variable,2.3,-,N/A,,Scattered Clouds,0,2012-10-05 16:50:00
8:50 PM,60.8,51.8,72,30.06,6.2,South,4.6,-,N/A,,Scattered Clouds,180,2012-10-05 17:50:00
9:50 PM,64.4,48.2,56,30.09,6.2,ENE,11.5,-,N/A,,Scattered Clouds,60,2012-10-05 18:50:00
10:50 PM,60.8,48.2,63,30.09,6.2,SE,3.5,-,N/A,,Scattered Clouds,140,2012-10-05 19:50:00
11:50 PM,57.2,50.0,77,30.09,6.2,ESE,5.8,-,N/A,,Partly Cloudy,110,2012-10-05 20:50:00